Flag for U.S.A. Weather past 2 weeks in Butte, Montana, U.S.A.

Now
46 °F

Passing clouds.


Feels Like: 46 °F
Forecast: 34 / 46 °F
Wind: No wind

Location: Mooney Airport

Current Time: Sep 30, 2014 at 8:17:13 AM

Latest Report: Sep 30, 2014 at 6:53 AM


Visibility: 10 mi

Pressure: 29.76 "Hg

Humidity: 79%

Dew point: 40 °F

Location of ButteLocation

Historic Weather in Butte — Graph

°F

Butte temperature yesterday

Maximum temperature yesterday: 59 °F (at 3:53 PM)
Minimum temperature yesterday: 37 °F (at 4:53 AM)
Average temperature yesterday: 48 °F

Past Weeks' High & Low Weather Summary

 TemperatureHumidityPressure
High84 °F (Sep 24, 3:53 PM)97% (Sep 23, 6:53 AM)30.24 "Hg (Sep 23, 6:53 AM)
Low33 °F (Sep 15, 7:53 AM)12% (Sep 25, 3:53 PM)29.65 "Hg (Sep 26, 12:53 AM)
Average56 °F60%29.98 "Hg
* Reported Sep 15 6:53 AM — Sep 30 6:53 AM, Butte, Weather by CustomWeather, © 2014

Note: Actual official high and low records may vary slightly from our data, if they occured in-between our weather recording intervals... More about our weather records

Advertising

Butte weather history for previous 24 hours

 ConditionsComfort  
Time TempWeatherWind HumidityBarometerVisibility
6:53 AM
Sep 30
46 °FPassing clouds.No wind79%29.76 "Hg10 mi
5:53 AM46 °FLight rain. Overcast.No wind86%29.77 "Hg10 mi
4:53 AM47 °FOvercast.No wind86%29.78 "Hg10 mi
3:53 AM47 °FMostly cloudy.No wind90%29.79 "Hg10 mi
2:53 AM46 °FOvercast.3 mph93%29.80 "Hg10 mi
1:53 AM46 °FLight rain. Mostly cloudy.3 mph93%29.81 "Hg10 mi
12:53 AM47 °FLight rain. Mostly cloudy.3 mph90%29.81 "Hg10 mi
11:59 PM
Sep 29
47 °FLight rain. Mostly cloudy.7 mph86%29.88 "Hg10 mi
10:53 PM49 °FLight rain. Mostly cloudy.3 mph86%29.80 "Hg10 mi
9:53 PM50 °FLight rain. Overcast.5 mph80%29.81 "Hg10 mi
8:53 PM53 °FOvercast.5 mph61%29.80 "Hg10 mi
7:53 PM54 °FMostly cloudy.6 mph59%29.80 "Hg10 mi
6:53 PM55 °FOvercast.6 mph57%29.79 "Hg10 mi
5:53 PM57 °FPartly sunny.10 mph49%29.79 "Hg10 mi
4:53 PM58 °FPartly sunny.8 mph50%29.79 "Hg10 mi
3:53 PM59 °FPartly sunny.7 mph44%29.80 "Hg10 mi
2:53 PM57 °FMostly cloudy.6 mph51%29.82 "Hg10 mi
1:53 PM56 °FPassing clouds.7 mph58%29.83 "Hg10 mi
12:53 PM52 °FPassing clouds.No wind66%29.87 "Hg10 mi
11:53 AM50 °FScattered clouds.No wind68%29.90 "Hg10 mi
10:53 AM46 °FOvercast.3 mph79%29.94 "Hg10 mi
9:53 AM44 °FPartly sunny.No wind85%29.95 "Hg10 mi
8:53 AM43 °FSunny.3 mph89%29.96 "Hg10 mi
Weather by CustomWeather, © 2014

See weather overviewHow to use our weather pages